• In Romania
  • List of Countries
  • For 7 days
  • Water Temperature
  • Satellite Maps
  • Weather Map
  • Weather Widgets
  • user-avatar
    Login

    Hourly Weather Podem-Mihaylovka

    Today, 19 October, Friday

    Time Temperature Precipitation Wind Pressure Humidity
    00:00 +7°C° 0 mm 3 mps 762 mmHg 63%
    01:00 +7°C° 0 mm 3 mps 762 mmHg 65%
    02:00 +6°C° 0 mm 4 mps 761 mmHg 67%
    03:00 +6°C° 0 mm 4 mps 761 mmHg 69%
    04:00 +6°C° 0 mm 4 mps 761 mmHg 71%
    05:00 +6°C° 0 mm 4 mps 761 mmHg 74%
    06:00 +6°C° 0 mm 4 mps 760 mmHg 76%
    07:00 +7°C° 0 mm 4 mps 760 mmHg 74%
    08:00 +9°C° 0 mm 5 mps 760 mmHg 71%
    09:00 +10°C° 0 mm 5 mps 760 mmHg 69%
    10:00 +11°C° 0 mm 6 mps 760 mmHg 65%
    11:00 +14°C° 0 mm 6 mps 760 mmHg 61%
    12:00 +16°C° 0 mm 6 mps 759 mmHg 57%
    13:00 +16°C° 0 mm 6 mps 759 mmHg 56%
    14:00 +16°C° 0 mm 6 mps 759 mmHg 56%
    15:00 +16°C° 0 mm 6 mps 759 mmHg 55%
    16:00 +15°C° 0 mm 5 mps 759 mmHg 59%
    17:00 +14°C° 0 mm 5 mps 758 mmHg 63%
    18:00 +13°C° 0 mm 5 mps 758 mmHg 67%
    19:00 +12°C° 0 mm 5 mps 758 mmHg 67%
    20:00 +12°C° 0 mm 5 mps 758 mmHg 67%
    21:00 +12°C° 0 mm 5 mps 758 mmHg 67%
    22:00 +12°C° 0 mm 5 mps 758 mmHg 67%
    23:00 +12°C° 0 mm 5 mps 758 mmHg 66%

    Tomorrow, 20 October, Saturday

    Time Temperature Precipitation Wind Pressure Humidity
    00:00 +10°C° 0 mm 5 mps 757 mmHg 66%
    01:00 +10°C° 0 mm 5 mps 757 mmHg 66%
    02:00 +10°C° 0 mm 5 mps 757 mmHg 65%
    03:00 +10°C° 0 mm 5 mps 757 mmHg 64%
    04:00 +9°C° 0 mm 5 mps 757 mmHg 65%
    05:00 +9°C° 0 mm 5 mps 756 mmHg 65%
    06:00 +8°C° 0 mm 5 mps 756 mmHg 66%
    07:00 +9°C° 0 mm 5 mps 756 mmHg 63%
    08:00 +10°C° 0 mm 6 mps 756 mmHg 59%
    09:00 +11°C° 0 mm 6 mps 756 mmHg 56%
    10:00 +13°C° 0 mm 6 mps 756 mmHg 54%
    11:00 +14°C° 0 mm 6 mps 756 mmHg 52%
    12:00 +15°C° 0 mm 6 mps 756 mmHg 50%
    13:00 +15°C° 0 mm 5 mps 756 mmHg 54%
    14:00 +15°C° 0 mm 5 mps 756 mmHg 57%
    15:00 +15°C° 0 mm 5 mps 756 mmHg 60%
    16:00 +13°C° 0 mm 4 mps 756 mmHg 68%
    17:00 +12°C° 0 mm 3 mps 756 mmHg 75%
    18:00 +11°C° 0 mm 3 mps 757 mmHg 82%
    19:00 +10°C° 0 mm 2 mps 757 mmHg 82%
    20:00 +10°C° 0 mm 2 mps 757 mmHg 83%
    21:00 +9°C° 0 mm 2 mps 758 mmHg 84%
    22:00 +8°C° 0 mm 2 mps 758 mmHg 83%
    23:00 +7°C° 0 mm 2 mps 758 mmHg 83%

    Day after tomorrow, 21 October, Sunday

    Time Temperature Precipitation Wind Pressure Humidity
    00:00 +7°C° 0 mm 2 mps 758 mmHg 82%
    01:00 +6°C° 0 mm 2 mps 759 mmHg 83%
    02:00 +6°C° 0 mm 2 mps 759 mmHg 85%
    03:00 +6°C° 0 mm 2 mps 760 mmHg 86%
    04:00 +5°C° 0 mm 2 mps 760 mmHg 87%
    05:00 +5°C° 0 mm 2 mps 760 mmHg 89%
    06:00 +6°C° 0 mm 1 mps 760 mmHg 90%
    07:00 +6°C° 0 mm 2 mps 761 mmHg 84%
    08:00 +7°C° 0 mm 2 mps 761 mmHg 78%
    09:00 +8°C° 0 mm 2 mps 762 mmHg 72%
    10:00 +9°C° 0 mm 2 mps 762 mmHg 67%
    11:00 +10°C° 0 mm 2 mps 762 mmHg 62%
    12:00 +12°C° 0 mm 2 mps 762 mmHg 57%
    13:00 +12°C° 0 mm 2 mps 762 mmHg 56%
    14:00 +12°C° 0 mm 2 mps 762 mmHg 55%
    15:00 +12°C° 0 mm 2 mps 762 mmHg 55%
    16:00 +10°C° 0 mm 2 mps 762 mmHg 60%
    17:00 +8°C° 0 mm 2 mps 763 mmHg 66%
    18:00 +7°C° 0 mm 2 mps 763 mmHg 71%
    19:00 +7°C° 0 mm 2 mps 763 mmHg 74%
    20:00 +6°C° 0 mm 2 mps 763 mmHg 77%
    21:00 +6°C° 0 mm 2 mps 764 mmHg 80%
    22:00 +5°C° 0 mm 2 mps 764 mmHg 81%
    23:00 +5°C° 0 mm 2 mps 764 mmHg 83%

    22 October, Monday

    Time Temperature Precipitation Wind Pressure Humidity
    00:00 +5°C° 0 mm 2 mps 764 mmHg 85%
    01:00 +4°C° 0 mm 2 mps 764 mmHg 86%
    02:00 +4°C° 0 mm 2 mps 764 mmHg 87%
    03:00 +4°C° 0 mm 2 mps 764 mmHg 89%
    04:00 +3°C° 0 mm 2 mps 765 mmHg 89%
    05:00 +3°C° 0 mm 2 mps 765 mmHg 90%
    06:00 +3°C° 0 mm 2 mps 765 mmHg 90%
    07:00 +4°C° 0 mm 2 mps 765 mmHg 85%
    08:00 +5°C° 0 mm 2 mps 765 mmHg 79%
    09:00 +6°C° 0 mm 2 mps 765 mmHg 74%
    10:00 +7°C° 0 mm 2 mps 765 mmHg 68%
    11:00 +8°C° 0 mm 2 mps 765 mmHg 62%
    12:00 +9°C° 0 mm 2 mps 765 mmHg 56%
    13:00 +9°C° 0 mm 2 mps 765 mmHg 55%
    14:00 +9°C° 0 mm 2 mps 765 mmHg 54%
    15:00 +9°C° 0 mm 2 mps 764 mmHg 53%
    16:00 +8°C° 0 mm 2 mps 764 mmHg 57%
    17:00 +7°C° 0 mm 2 mps 764 mmHg 62%
    18:00 +6°C° 0 mm 2 mps 765 mmHg 66%
    19:00 +5°C° 0 mm 2 mps 765 mmHg 67%
    20:00 +5°C° 0 mm 2 mps 764 mmHg 69%
    21:00 +4°C° 0 mm 2 mps 764 mmHg 70%
    22:00 +4°C° 0 mm 2 mps 764 mmHg 71%
    23:00 +4°C° 0 mm 2 mps 764 mmHg 72%

    23 October, Tuesday

    Time Temperature Precipitation Wind Pressure Humidity
    00:00 +3°C° 0 mm 2 mps 764 mmHg 73%
    01:00 +3°C° 0 mm 2 mps 764 mmHg 75%
    02:00 +3°C° 0 mm 2 mps 764 mmHg 76%
    03:00 +3°C° 0 mm 2 mps 764 mmHg 77%
    04:00 +2°C° 0 mm 2 mps 764 mmHg 78%
    05:00 +2°C° 0 mm 2 mps 763 mmHg 79%
    06:00 +2°C° 0 mm 2 mps 763 mmHg 79%
    07:00 +3°C° 0 mm 2 mps 763 mmHg 73%
    08:00 +4°C° 0 mm 3 mps 763 mmHg 66%
    09:00 +5°C° 0 mm 3 mps 763 mmHg 59%
    10:00 +7°C° 0 mm 3 mps 763 mmHg 54%
    11:00 +9°C° 0 mm 3 mps 762 mmHg 48%
    12:00 +10°C° 0 mm 4 mps 762 mmHg 42%
    13:00 +10°C° 0 mm 4 mps 761 mmHg 41%
    14:00 +10°C° 0 mm 4 mps 761 mmHg 41%
    15:00 +11°C° 0 mm 4 mps 761 mmHg 40%
    16:00 +10°C° 0 mm 4 mps 760 mmHg 44%
    17:00 +9°C° 0 mm 3 mps 760 mmHg 48%
    18:00 +8°C° 0 mm 3 mps 760 mmHg 51%
    19:00 +7°C° 0 mm 4 mps 759 mmHg 51%
    20:00 +7°C° 0 mm 4 mps 759 mmHg 51%
    21:00 +8°C° 0 mm 4 mps 758 mmHg 51%
    22:00 +8°C° 0 mm 4 mps 758 mmHg 53%
    23:00 +8°C° 0 mm 4 mps 758 mmHg 56%

    24 October, Wednesday

    Time Temperature Precipitation Wind Pressure Humidity
    00:00 +8°C° 0 mm 4 mps 757 mmHg 58%
    01:00 +8°C° 0 mm 4 mps 757 mmHg 58%
    02:00 +9°C° 0 mm 5 mps 756 mmHg 57%
    03:00 +9°C° 0 mm 5 mps 756 mmHg 57%
    04:00 +9°C° 0 mm 5 mps 755 mmHg 58%
    05:00 +9°C° 0 mm 5 mps 755 mmHg 59%
    06:00 +9°C° 0 mm 5 mps 754 mmHg 61%
    07:00 +10°C° 0 mm 6 mps 754 mmHg 59%
    08:00 +10°C° 0 mm 7 mps 754 mmHg 57%
    09:00 +11°C° 0 mm 7 mps 753 mmHg 55%
    10:00 +11°C° 0.4 mm 7 mps 753 mmHg 60%
    11:00 +11°C° 0.4 mm 7 mps 752 mmHg 65%
    12:00 +10°C° 0.4 mm 6 mps 752 mmHg 70%
    13:00 +10°C° 0.6 mm 7 mps 751 mmHg 73%
    14:00 +10°C° 0.6 mm 7 mps 751 mmHg 77%
    15:00 +10°C° 0.6 mm 7 mps 750 mmHg 80%
    16:00 +10°C° 0 mm 6 mps 750 mmHg 80%
    17:00 +10°C° 0 mm 5 mps 750 mmHg 80%
    18:00 +10°C° 0 mm 5 mps 750 mmHg 79%
    19:00 +11°C° 0 mm 4 mps 749 mmHg 80%
    20:00 +10°C° 0 mm 4 mps 749 mmHg 81%
    21:00 +10°C° 0 mm 3 mps 749 mmHg 82%
    22:00 +10°C° 0 mm 4 mps 748 mmHg 80%
    23:00 +10°C° 0 mm 4 mps 748 mmHg 78%
    Show more